sat.trackr.live / text

‹ back to catalog

STARLINK-4462

NORAD 53781 · 2022-111J

PAYLOAD ACTIVE UNKNOWN

§ Identity

Operator
Country
US
Launch date
2022-09-11
Launch site
AFETR
Launch vehicle
Mass (kg)
RCS (m²)

Purposes: comms

External: N2YO · Heavens-Above · Gunter

§ Orbital elements

Epoch: 2026-09-20T22:00:03.000096Z

Period
93.79 min
Inclination
53.1609°
Eccentricity
0.0001165
Mean motion
15.35365253 rev/d
Perigee alt
459.0 km
Apogee alt
460.6 km
Semi-major
6,838.0 km
B*
7.4872e-4
RAAN
113.9718°
Arg perigee
84.6773°
Mean anomaly
248.0757°
Rev number
580

§ Raw data

STARLINK-44621 53781U 22111J   26263.91670139  .00025796  00000+0  74872-3 0  99952 53781  53.1609 113.9718 0001165  84.6773 248.0757 15.35365253  5802

JSON: /api/v1/satellites/53781 · /tle

For live sub-satellite position, see the globe view (requires WebGL).

§ Visibility from observer

Set your observer location to see the next 7 days of passes ≥ 10°. The values pass through the URL so the page stays shareable.

No JS? Fill the form by hand. The geolocation button needs JavaScript.